Temp
21 20 19 18 18 17 17 16 16 16 16 15 14 15 15 15 14 14 16 15 13 14 14 13 13 13 14 13 13 13 14 13
20 20 19 18 17 17 16 16 15 15 15 15 15 15 14 14 14 14 15 14 13 13 14 13 13 12 13 13 13 13 13 13
20 19 19 18 17 16 16 15 15 14 14 14 14 14 14 14 15 14 14 13 13 13 13 12 11 12 12 13 13 12 12 13
20 19 18 18 17 16 15 15 14 13 13 14 13 13 13 13 14 13 14 13 13 12 11 11 11 11 12 12 12 11 12 11
19 19 19 18 14 17 16 15 15 14 14 14 14 13 13 13 12 13 13 12 12 11 11 11 11 11 12 11 11 11 12 11
19 19 19 18 14 17 16 16 14 13 13 13 13 13 13 13 13 13 13 12 12 11 11 11 11 11 11 11 11 12 12 10
20 19 19 18 17 17 16 15 14 13 13 13 13 13 13 13 12 13 12 12 12 11 11 11 11 11 11 11 11 11 12 11
16 19 18 18 17 15 15 15 13 13 13 13 13 12 12 12 12 12 12 12 11 11 11 11 11 11 11 11 11 11 11 11
15 19 18 18 17 15 15 13 12 12 12 12 12 12 12 12 12 12 11 11 11 11 10 11 11 11 10 10 10 10 10 10
16 18 18 18 17 15 14 12 12 11 12 12 12 12 12 11 11 11 11 11 10 10 10 10 11 11 10 11 11 10 10 10
16 17 18 18 17 16 14 15 14 12 12 12 12 12 12 11 11 12 10 10 11 10 10 10 10 10 10 10 10 10 10 9
16 17 18 18 17 15 12 15 14 12 12 12 12 12 12 12 11 12 11 10 10 10 10 10 11 10 10 10 10 10 10 9
16 15 16 18 17 15 15 16 14 12 12 12 11 11 11 11 12 11 10 10 10 10 10 10 9 10 9 9 9 9 9 9
16 16 15 18 17 16 15 15 14 12 12 12 11 12 11 11 11 11 11 10 10 10 10 10 10 9 9 9 8 8 8 9
18 17 14 15 16 15 14 14 14 11 12 12 11 11 11 10 10 10 11 10 10 10 11 10 10 10 9 10 8 8 8 8
17 16 14 12 13 15 17 17 15 12 11 13 10 11 11 10 10 10 10 10 10 10 10 10 10 10 8 9 10 10 9 9
16 15 14 12 12 15 16 15 12 11 10 12 10 10 10 10 10 10 10 10 10 9 10 9 10 10 10 9 9 9 10 11
15 14 14 12 13 14 16 16 13 11 12 10 9 9 9 9 10 10 10 10 10 10 10 10 9 10 10 9 9 9 10 11
14 14 13 12 15 14 15 16 14 12 11 10 10 10 9 9 9 10 10 10 10 10 10 10 9 10 9 9 9 10 10 10
14 13 13 11 14 14 15 16 12 11 11 10 10 9 8 8 9 10 9 9 10 10 10 9 10 9 9 9 9 10 9 10
Height
1495 1496 1498 1500 1501 1503 1505 1507 1510 1513 1515 1519 1521 1523 1526 1527 1530 1532 1532 1533 1537 1539 1539 1543 1548 1551 1552 1554 1556 1559 1563 1564
1493 1495 1496 1498 1500 1502 1504 1506 1508 1511 1513 1515 1519 1522 1524 1525 1526 1529 1529 1532 1535 1537 1537 1539 1542 1549 1552 1554 1556 1559 1562 1564
1491 1493 1494 1496 1498 1500 1502 1504 1505 1508 1510 1513 1517 1520 1521 1524 1525 1526 1527 1531 1533 1536 1537 1537 1538 1545 1551 1553 1556 1561 1561 1564
1488 1490 1492 1494 1496 1497 1499 1502 1502 1504 1507 1509 1512 1516 1518 1520 1522 1525 1526 1530 1531 1533 1536 1536 1539 1545 1549 1552 1556 1557 1562 1562
1485 1486 1489 1491 1493 1494 1496 1498 1499 1500 1503 1506 1508 1511 1514 1517 1519 1521 1524 1526 1528 1531 1531 1531 1536 1542 1545 1550 1553 1557 1561 1562
1481 1483 1485 1487 1490 1491 1493 1493 1495 1497 1499 1502 1505 1508 1510 1513 1515 1516 1519 1521 1523 1525 1525 1530 1533 1540 1543 1548 1552 1557 1560 1560
1476 1479 1481 1483 1485 1487 1489 1490 1491 1492 1495 1498 1501 1504 1506 1509 1511 1514 1516 1517 1519 1520 1518 1527 1533 1538 1541 1546 1551 1556 1559 1561
1472 1474 1477 1480 1482 1483 1486 1486 1489 1489 1491 1495 1498 1500 1502 1505 1507 1509 1511 1513 1514 1516 1520 1523 1530 1536 1540 1545 1551 1554 1558 1560
1466 1468 1472 1475 1478 1479 1483 1484 1484 1486 1487 1490 1493 1496 1499 1501 1503 1505 1507 1508 1510 1511 1514 1521 1527 1533 1539 1544 1549 1552 1556 1558
1461 1461 1466 1470 1473 1475 1478 1480 1481 1483 1484 1486 1489 1492 1495 1496 1498 1499 1501 1502 1504 1505 1506 1517 1523 1530 1536 1542 1548 1551 1554 1557
1456 1457 1460 1464 1468 1472 1473 1475 1477 1480 1480 1483 1486 1488 1490 1492 1494 1494 1496 1496 1498 1502 1507 1513 1517 1527 1534 1540 1545 1549 1551 1555
1450 1452 1454 1459 1464 1467 1470 1470 1474 1476 1477 1479 1482 1484 1486 1489 1490 1490 1490 1490 1493 1495 1502 1509 1517 1525 1533 1538 1543 1547 1550 1554
1442 1445 1448 1452 1457 1460 1463 1464 1469 1472 1473 1475 1478 1480 1482 1484 1486 1487 1488 1489 1492 1496 1500 1505 1515 1524 1530 1535 1541 1544 1547 1551
1434 1438 1441 1443 1449 1455 1459 1461 1463 1468 1469 1471 1474 1476 1478 1481 1484 1486 1487 1489 1491 1495 1499 1502 1512 1520 1524 1531 1537 1542 1545 1548
1427 1430 1435 1437 1443 1449 1453 1457 1459 1463 1464 1466 1469 1472 1474 1477 1480 1484 1486 1488 1492 1495 1498 1504 1510 1517 1520 1526 1532 1536 1541 1545
1420 1423 1428 1432 1437 1440 1444 1448 1453 1457 1459 1460 1464 1468 1471 1473 1476 1479 1484 1486 1490 1494 1497 1501 1506 1511 1518 1524 1528 1531 1534 1541
1413 1416 1421 1424 1429 1434 1439 1445 1449 1454 1455 1456 1460 1464 1467 1470 1472 1474 1477 1482 1485 1490 1495 1498 1502 1508 1513 1519 1523 1526 1530 1534
1405 1407 1412 1417 1421 1427 1434 1439 1443 1448 1450 1453 1456 1459 1462 1465 1468 1470 1474 1479 1481 1485 1491 1495 1498 1504 1510 1515 1518 1520 1525 1529
1395 1401 1405 1407 1413 1420 1428 1434 1439 1443 1447 1450 1453 1454 1456 1459 1463 1465 1468 1472 1478 1481 1484 1489 1494 1498 1503 1508 1512 1516 1520 1524
1388 1393 1399 1401 1407 1415 1422 1430 1436 1440 1442 1446 1448 1451 1453 1454 1457 1461 1464 1469 1474 1477 1480 1482 1489 1493 1497 1501 1507 1512 1515 1518
Wind_Speed
17 16 16 17 19 20 20 20 19 18 18 19 21 24 25 23 22 22 26 25 25 25 22 19 19 20 21 20 18 16 14 12
18 18 17 17 18 19 20 20 20 19 20 21 23 23 24 31 22 24 19 23 26 20 23 25 24 22 24 20 18 16 13 12
21 20 17 17 17 18 19 20 21 21 21 23 23 24 25 31 27 25 21 25 22 20 23 24 26 26 25 21 17 14 12 12
24 22 18 17 18 18 18 19 21 22 23 25 24 23 23 24 26 24 27 26 20 22 20 21 25 27 26 22 17 16 12 10
24 24 20 18 15 18 19 20 23 23 23 23 24 25 22 24 21 27 31 24 21 23 27 25 29 30 29 24 17 14 11 12
28 26 22 20 16 16 18 19 23 23 24 24 25 25 24 25 26 29 36 27 27 27 27 26 30 30 27 22 16 13 12 11
30 28 25 22 20 17 17 18 20 21 23 22 25 25 26 26 25 30 33 31 27 27 31 29 31 30 25 19 16 15 13 12
26 30 27 24 21 17 16 16 21 23 20 22 24 25 24 25 27 32 33 32 29 33 34 33 33 28 22 19 17 15 14 12
27 31 30 27 24 19 17 14 19 24 23 23 23 25 25 26 28 30 32 31 30 34 37 36 35 27 22 19 17 15 13 14
26 31 33 30 27 22 18 17 17 21 23 23 24 25 25 26 26 27 27 28 32 29 44 37 38 29 22 19 18 15 14 14
26 29 33 32 30 24 21 21 21 20 20 23 23 24 25 24 23 25 21 28 36 37 37 40 36 27 22 19 18 16 15 15
24 27 32 34 31 27 20 23 23 22 20 21 20 21 24 23 21 20 16 24 30 41 44 41 38 25 20 19 17 16 15 15
24 27 30 35 35 33 29 27 25 26 23 20 21 21 21 23 22 17 15 26 27 26 41 40 40 31 24 20 18 15 15 16
24 27 31 37 38 35 30 27 26 26 24 22 21 21 21 25 26 20 18 22 27 23 36 43 41 31 26 25 16 16 18 19
27 27 30 35 35 32 29 26 26 28 26 25 23 21 22 22 31 25 22 22 26 29 28 29 31 32 28 20 11 10 21 21
26 26 31 32 34 36 37 31 28 23 22 23 24 24 26 25 22 31 32 28 27 31 34 39 40 36 34 32 22 16 23 13
26 26 30 32 37 38 35 27 20 16 18 19 22 21 24 23 26 35 37 30 30 33 34 41 42 39 40 33 22 19 23 18
25 27 32 34 38 39 36 29 22 16 17 16 16 22 20 27 25 28 29 28 30 35 36 35 43 41 41 37 30 27 24 22
25 28 34 40 44 39 36 32 24 18 15 15 15 18 19 21 30 28 32 33 31 28 34 36 40 38 42 39 42 43 34 28
26 30 33 40 44 40 36 29 22 17 16 14 14 14 15 17 23 29 29 29 29 29 30 34 41 41 45 49 46 45 42 37
Wind_Direction
211 211 213 219 222 223 222 223 221 216 212 207 203 208 209 205 198 234 216 224 205 204 200 195 208 203 202 193 192 185 171 167
215 220 219 223 225 226 228 226 226 222 216 214 214 217 214 202 232 220 247 202 207 221 212 191 198 210 207 197 191 185 169 164
215 220 222 224 226 232 229 231 228 222 218 215 217 220 219 217 243 230 231 206 213 236 215 211 202 205 206 195 185 175 169 175
217 219 221 221 224 226 226 229 231 223 219 216 217 215 216 222 224 228 215 203 245 225 216 220 200 203 200 190 175 179 172 176
216 219 221 221 214 229 232 230 235 228 227 223 217 217 217 220 214 211 203 225 215 222 237 218 203 199 193 184 180 169 186 192
222 221 222 222 212 226 236 239 235 232 231 225 222 226 226 228 223 218 210 231 233 240 236 199 196 193 189 179 177 170 185 201
228 223 223 222 223 229 241 235 229 232 230 233 217 228 230 227 228 220 226 238 248 237 195 193 193 189 181 176 175 176 184 195
228 225 222 224 225 225 235 232 225 228 226 226 227 224 230 226 231 231 238 237 245 218 207 196 198 188 176 176 177 178 180 187
226 229 224 224 226 224 227 213 223 223 224 229 225 224 229 232 233 238 243 243 238 226 204 198 199 185 177 175 177 176 179 175
221 230 225 225 226 223 219 218 217 221 221 225 226 227 231 232 238 240 247 238 238 214 199 194 196 180 176 176 178 177 176 174
218 228 228 225 227 224 222 231 227 223 219 225 228 229 233 231 238 242 238 235 234 219 218 202 177 178 173 173 175 177 175 179
218 226 229 225 225 222 218 226 222 220 217 217 225 229 232 234 228 235 232 237 222 210 212 193 188 180 171 173 174 179 180 185
223 219 222 222 222 218 221 227 221 222 219 217 219 227 231 220 216 214 216 222 207 202 208 188 189 189 171 163 169 176 182 192
224 223 218 225 220 221 223 224 224 225 222 221 224 226 227 219 213 213 212 211 217 198 202 185 189 177 172 177 171 187 196 192
236 227 214 217 213 211 215 214 221 215 222 224 218 221 227 225 213 206 195 191 199 191 188 193 183 189 201 191 168 192 192 206
231 224 211 212 206 212 219 220 221 221 222 226 223 220 226 227 231 211 210 215 208 205 202 200 195 197 200 204 208 205 188 189
229 218 207 205 206 212 214 209 211 212 210 220 218 221 223 228 233 225 227 207 225 215 205 206 207 206 203 198 201 205 204 203
221 212 204 202 204 207 209 208 205 203 208 205 208 219 216 221 226 223 227 227 218 223 216 210 210 215 218 208 210 200 203 205
209 205 200 203 208 203 205 211 209 206 202 202 201 213 223 216 219 225 228 227 226 238 220 218 221 220 214 214 221 222 222 209
203 200 196 203 208 201 202 206 203 201 208 201 202 213 217 219 216 220 226 225 233 236 230 238 219 228 226 229 230 228 225 227